[[{"header":{"parameterUnit":"m.s-1","parameterCategory":1,"la1":30.2991,"la2":30.254,"lo1":-89.0895,"lo2":-89.0444,"dy":0.0017,"dx":0.0017,"nx":28,"ny":28,"refTime":"2024-04-22T09:00:00:Z","depth":0,"parameterNumber":2,"parameterNumberName":"U-component_of_WINDS"},"data":[0,0,0,0,0,0,0,0,0,0,0,0,0,0,0,0,0,0,0,0,0,0,0,0,0,0,0,0,0,0,0,0,0,0,0,0,0,0,0,0,0,0,0,0,0,0,0,0,0,0,0,0,0,0,0,0,0,0,-0.9008,-0.9008,0,-0.9007,-0.9007,-0.9007,-0.8991,-0.899,-0.899,-0.8989,-0.8988,-0.8988,-0.8989,0,0,0,0,0,0,0,0,0,0,0,0,0,-0.8998,-0.8998,-0.9008,-0.9008,-0.9008,-0.9007,-0.9007,-0.9007,-0.8991,-0.899,-0.899,-0.8989,-0.8988,-0.8988,-0.8989,0,0,0,0,0,0,0,0,0,0,0,0,0,-0.9,-0.8998,-0.9008,-0.9,-0.8999,-0.9007,-0.9007,-0.9007,-0.8991,-0.899,-0.899,-0.8989,-0.8988,-0.8988,-0.8989,-0.9004,0,0,-0.899,-0.899,0,0,0,0,0,0,0,0,-0.9,-0.9,-0.9001,-0.9001,-0.9,-0.8998,-0.9003,-0.9006,-0.8991,-0.8994,-0.8989,-0.8989,-0.8992,-0.8992,-0.8993,-0.9004,-0.9004,-0.899,-0.899,-0.8991,-0.8991,0,0,0,0,0,0,0,-0.9,-0.9,-0.9008,-0.9001,-0.9,-0.8997,-0.8996,-0.9003,-0.8996,-0.8994,-0.8993,-0.8993,-0.8991,-0.8993,-0.8993,-0.9004,-0.899,-0.8991,-0.8991,-0.8991,-0.9028,-0.9029,0,0,0,0,0,0,-0.9001,-0.9,-0.9008,-0.9008,-0.8998,-0.8997,-0.8997,-0.8999,-0.8996,-0.8995,-0.8993,-0.8992,-0.8992,-0.8992,-0.8993,-0.9011,-0.8991,-0.8991,-0.8991,-0.9028,-0.9028,-0.9029,0,0,0,0,0,0,-0.9001,-0.9002,-0.9008,-0.9004,-0.9004,-0.8998,-0.9001,-0.9,-0.9001,-0.8996,-0.8995,-0.8996,-0.8992,-0.8992,-0.9002,-0.9011,-0.8991,-0.8992,-0.9027,-0.9028,-0.9029,-0.9048,0,0,0,0,0,0,-0.9,-0.9002,-0.9007,-0.9004,-0.9005,-0.9016,-0.9002,-0.9,-0.9002,-0.9,-0.8998,-0.8997,-0.8991,-0.9001,-0.9002,-0.9011,-0.8992,-0.9026,-0.9027,-0.9028,-0.9046,-0.9049,-0.9052,0,0,0,0,0,-0.9,-0.9012,-0.9007,-0.9008,-0.9011,-0.9017,-0.9017,-0.9011,-0.9003,-0.9008,-0.9005,-0.8997,-0.901,-0.9002,-0.9003,-0.9013,-0.9025,-0.9027,-0.9028,-0.9045,-0.9049,-0.9052,0,0,0,0,0,0,-0.9016,-0.9012,-0.9006,-0.9018,-0.9018,-0.9014,-0.9021,-0.9015,-0.9017,-0.9015,-0.9007,-0.9006,-0.9017,-0.9016,-0.9007,-0.9028,-0.9016,-0.9018,-0.9028,-0.9032,-0.9035,-0.9035,-0.8993,0,0,0,0,0,-0.9021,-0.9026,-0.9022,-0.9032,-0.9033,-0.9027,-0.9029,-0.9024,-0.9024,-0.9024,-0.9021,-0.9022,-0.9026,-0.9029,-0.9032,-0.9046,-0.9046,-0.9053,-0.9056,-0.9058,-0.906,-0.9068,-0.9072,-0.9034,-0.9034,-0.9034,0,0,-0.9031,-0.9029,-0.9033,-0.9036,-0.9035,-0.9041,-0.9027,-0.9033,-0.9038,-0.9025,-0.9034,-0.9032,-0.9032,-0.9044,-0.9049,-0.9043,-0.907,-0.906,-0.9062,-0.9063,-0.907,-0.9074,-0.9077,-0.9035,-0.9035,-0.9035,0,0,-0.9053,-0.9051,-0.9061,-0.9061,-0.906,-0.9057,-0.9059,-0.9057,-0.9055,-0.9064,-0.9055,-0.906,-0.9067,-0.9068,-0.9069,-0.9092,-0.9085,-0.9093,-0.9108,-0.9116,-0.9119,-0.9122,-0.913,-0.9134,-0.9095,-0.9095,-0.9095,0,-0.9065,-0.9073,-0.9066,-0.9073,-0.9075,-0.9064,-0.9074,-0.9074,-0.9075,-0.9077,-0.907,-0.908,-0.9079,-0.9091,-0.9097,-0.9098,-0.9101,-0.9093,-0.9119,-0.9122,-0.9124,-0.9132,-0.9135,-0.9096,-0.9096,-0.9096,-0.9096,0,-0.9089,-0.9095,-0.9102,-0.9104,-0.9106,-0.9115,-0.9109,-0.9113,-0.9108,-0.9105,-0.9115,-0.9114,-0.9117,-0.912,-0.9115,-0.9132,-0.9128,-0.9121,-0.9109,-0.9129,-0.9136,-0.9139,-0.9098,-0.9097,-0.9097,-0.9097,0,0,-0.912,-0.9118,-0.9121,-0.9122,-0.9121,-0.9126,-0.9134,-0.9138,-0.9142,-0.9143,-0.915,-0.9157,-0.915,-0.9151,-0.9146,-0.9153,-0.9173,-0.9145,-0.9145,-0.9151,-0.9192,-0.9199,-0.9202,-0.9168,-0.9169,-0.9169,-0.9193,0,-0.9141,-0.9155,-0.9149,-0.9164,-0.9169,-0.916,-0.9167,-0.9168,-0.9166,-0.9171,-0.9168,-0.9174,-0.9164,-0.9165,-0.9171,-0.9169,-0.9181,-0.9167,-0.9175,-0.9175,-0.9175,-0.9206,-0.9212,-0.9235,-0.9196,-0.9196,-0.9196,0,-0.9167,-0.917,-0.9185,-0.9185,-0.9187,-0.9193,-0.9197,-0.9201,-0.9202,-0.9201,-0.9203,-0.9197,-0.9205,-0.9194,-0.9206,-0.9196,-0.9199,-0.9199,-0.92,-0.92,-0.9187,-0.9208,-0.9241,-0.9245,-0.9201,-0.9201,-0.92,0,-0.9189,-0.9196,-0.9207,-0.9208,-0.9207,-0.9212,-0.9212,-0.9213,-0.9216,-0.9219,-0.9221,-0.9225,-0.9227,-0.9231,-0.9226,-0.9218,-0.9239,-0.9227,-0.9238,-0.9238,-0.9243,-0.9243,-0.9278,-0.9244,-0.9244,-0.9244,-0.9244,0,-0.9213,-0.9223,-0.9216,-0.9223,-0.9234,-0.9228,-0.9239,-0.9238,-0.9239,-0.9245,-0.9237,-0.9243,-0.9236,-0.9242,-0.9239,-0.925,-0.9251,-0.925,-0.9249,-0.925,-0.9251,-0.9252,-0.9251,-0.9245,-0.9245,-0.9245,-0.9245,0,-0.9239,-0.9235,-0.9246,-0.9245,-0.9245,-0.9253,-0.9252,-0.9258,-0.9256,-0.9264,-0.9266,-0.9262,-0.9269,-0.9265,-0.9271,-0.9269,-0.9283,-0.928,-0.9283,-0.9282,-0.9294,-0.9293,-0.9331,-0.9336,-0.93,-0.93,-0.93,0,-0.9254,-0.9262,-0.9262,-0.9266,-0.9266,-0.9272,-0.9276,-0.927,-0.9274,-0.9276,-0.9282,-0.9288,-0.9293,-0.9303,-0.9302,-0.9307,-0.9304,-0.9317,-0.9304,-0.9306,-0.9304,-0.9304,-0.9305,-0.9319,-0.932,-0.932,-0.932,0,-0.9283,-0.9281,-0.9286,-0.9291,-0.9295,-0.9298,-0.9301,-0.9304,-0.9299,-0.9304,-0.931,-0.9314,-0.9321,-0.9327,-0.9331,-0.9332,-0.9326,-0.9324,-0.9327,-0.9329,-0.9331,-0.9331,-0.929,-0.9323,-0.9323,-0.9323,-0.9323,-0.9323,-0.9305,-0.9311,-0.9313,-0.9319,-0.932,-0.9323,-0.9329,-0.9328,-0.9333,-0.9339,-0.9335,-0.9343,-0.9345,-0.9351,-0.9352,-0.9359,-0.9353,-0.9357,-0.9358,-0.936,-0.9362,-0.933,-0.9359,-0.9359,-0.9359,-0.9359,-0.9359,0,-0.9333,-0.9334,-0.934,-0.9344,-0.9349,-0.9343,-0.9346,-0.935,-0.9358,-0.936,-0.9364,-0.9373,-0.9379,-0.9378,-0.9384,-0.9389,-0.9387,-0.9391,-0.9391,-0.9391,-0.9366,-0.9363,-0.9393,-0.9393,-0.9393,-0.9393,-0.9393,-0.9393,-0.9349,-0.936,-0.9358,-0.937,-0.9371,-0.9379,-0.9381,-0.9384,-0.9386,-0.9396,-0.9401,-0.94,-0.9402,-0.9408,-0.9413,-0.9413,-0.9416,-0.9421,-0.942,-0.9396,-0.9393,-0.9389,-0.9387,-0.9422,-0.9422,-0.9445,-0.9445,-0.9445]},{"header":{"parameterUnit":"m.s-1","parameterCategory":1,"la1":30.2991,"la2":30.254,"lo1":-89.0895,"lo2":-89.0444,"dy":0.0017,"dx":0.0017,"nx":28,"ny":28,"refTime":"2024-04-22T09:00:00:Z","depth":0,"parameterNumber":3,"parameterNumberName":"V-component_of_WINDS"},"data":[0,0,0,0,0,0,0,0,0,0,0,0,0,0,0,0,0,0,0,0,0,0,0,0,0,0,0,0,0,0,0,0,0,0,0,0,0,0,0,0,0,0,0,0,0,0,0,0,0,0,0,0,0,0,0,0,0,0,3.4619,3.4619,0,3.4604,3.4604,3.4604,3.4579,3.4578,3.4578,3.4577,3.4562,3.4562,3.4562,0,0,0,0,0,0,0,0,0,0,0,0,0,3.4625,3.4625,3.4619,3.4619,3.4619,3.4604,3.4604,3.4604,3.4579,3.4578,3.4577,3.4577,3.4562,3.4562,3.4562,0,0,0,0,0,0,0,0,0,0,0,0,0,3.4618,3.4625,3.4619,3.4604,3.4603,3.4604,3.4604,3.4604,3.4579,3.4578,3.4577,3.4577,3.4562,3.4562,3.4562,3.4577,0,0,3.4562,3.4562,0,0,0,0,0,0,0,0,3.4618,3.4618,3.4607,3.4605,3.4604,3.4592,3.4601,3.4595,3.4579,3.4588,3.4577,3.4576,3.4573,3.4572,3.4571,3.4576,3.4575,3.4562,3.4562,3.4562,3.4562,0,0,0,0,0,0,0,3.4619,3.4618,3.4613,3.4606,3.4605,3.4598,3.4597,3.4599,3.4584,3.4587,3.4585,3.4584,3.4572,3.4571,3.457,3.4575,3.4562,3.4562,3.4562,3.4562,3.4592,3.4592,0,0,0,0,0,0,3.4621,3.4619,3.4614,3.4613,3.4609,3.4599,3.4597,3.4597,3.4584,3.4582,3.4584,3.4583,3.4571,3.457,3.4569,3.4585,3.4562,3.4562,3.4562,3.4591,3.4592,3.4592,0,0,0,0,0,0,3.4622,3.4621,3.4614,3.4615,3.4614,3.46,3.46,3.4597,3.4596,3.4582,3.458,3.4586,3.457,3.4569,3.4575,3.4584,3.4562,3.4562,3.459,3.4591,3.4592,3.4618,0,0,0,0,0,0,3.4622,3.4621,3.4627,3.4615,3.4614,3.462,3.46,3.4597,3.4596,3.4593,3.4583,3.4581,3.457,3.4575,3.4575,3.4584,3.4563,3.4589,3.459,3.4592,3.4616,3.4619,3.4622,0,0,0,0,0,3.4622,3.4635,3.4627,3.4627,3.462,3.4621,3.462,3.4607,3.4597,3.4602,3.4593,3.4581,3.4584,3.4576,3.4576,3.4585,3.4588,3.459,3.4592,3.4614,3.4619,3.4622,0,0,0,0,0,0,3.4647,3.4633,3.4624,3.4634,3.4629,3.4616,3.4622,3.4612,3.4609,3.4607,3.4591,3.4589,3.4597,3.4592,3.4583,3.4598,3.4584,3.4586,3.4601,3.4605,3.4609,3.4609,3.4563,0,0,0,0,0,3.4654,3.4656,3.4643,3.4652,3.465,3.4637,3.4637,3.4627,3.4621,3.4619,3.4611,3.4606,3.4605,3.4605,3.4604,3.4615,3.4612,3.4621,3.4625,3.4628,3.4629,3.4634,3.4638,3.4598,3.4598,3.4598,0,0,3.4668,3.466,3.4662,3.4657,3.4652,3.4654,3.4635,3.4638,3.4639,3.4619,3.4624,3.4618,3.4611,3.4619,3.4623,3.4615,3.464,3.463,3.4632,3.4632,3.4636,3.464,3.4643,3.4599,3.4599,3.4599,0,0,3.4693,3.4688,3.4695,3.469,3.4683,3.4674,3.4676,3.4665,3.466,3.4665,3.465,3.4651,3.4651,3.4647,3.4644,3.4669,3.4657,3.4669,3.4686,3.4691,3.4694,3.4697,3.4705,3.4708,3.4671,3.4671,3.4671,0,3.4711,3.4713,3.47,3.4703,3.4701,3.4684,3.4691,3.4687,3.468,3.4679,3.4671,3.467,3.4664,3.4671,3.4677,3.4676,3.4677,3.4669,3.4695,3.4697,3.47,3.4707,3.471,3.4672,3.4672,3.4672,3.4672,0,3.4735,3.4737,3.4743,3.4737,3.4736,3.4741,3.4728,3.4729,3.472,3.4712,3.4717,3.4709,3.4706,3.4707,3.4698,3.4713,3.4708,3.4698,3.4683,3.4705,3.4712,3.4715,3.4674,3.4674,3.4673,3.4673,0,0,3.4775,3.4761,3.4764,3.4761,3.4751,3.4753,3.4757,3.4754,3.4755,3.4751,3.4754,3.4754,3.4744,3.4742,3.4732,3.4737,3.4756,3.4726,3.4725,3.4731,3.4771,3.4778,3.4782,3.4749,3.4749,3.475,3.4771,0,3.4798,3.4805,3.4793,3.4803,3.4804,3.4787,3.4791,3.4786,3.4779,3.4779,3.4771,3.4771,3.4759,3.4757,3.4761,3.4753,3.4764,3.4751,3.4751,3.4751,3.4752,3.4785,3.4793,3.4814,3.4774,3.4774,3.4775,0,3.4826,3.4823,3.4833,3.4823,3.4823,3.4827,3.4823,3.4823,3.4817,3.4812,3.4809,3.4798,3.4801,3.4788,3.4792,3.4784,3.4783,3.4779,3.478,3.4779,3.4764,3.4784,3.482,3.4823,3.4779,3.4778,3.4778,0,3.4854,3.4852,3.4858,3.4855,3.4844,3.4847,3.4843,3.4836,3.4835,3.4832,3.4831,3.4828,3.4826,3.4825,3.4813,3.4804,3.4819,3.4804,3.4814,3.4814,3.4817,3.4817,3.4852,3.4818,3.4818,3.4818,3.4818,0,3.488,3.4886,3.487,3.4873,3.488,3.4866,3.4873,3.4867,3.4861,3.4863,3.4849,3.485,3.4835,3.4836,3.4827,3.4831,3.4831,3.4826,3.4824,3.4827,3.4828,3.4826,3.4824,3.4819,3.4818,3.4818,3.4818,0,3.4911,3.4901,3.4905,3.4895,3.4892,3.4897,3.4888,3.489,3.4883,3.4885,3.4885,3.4873,3.4872,3.4861,3.4858,3.4852,3.486,3.4855,3.4862,3.486,3.487,3.4869,3.4905,3.4909,3.4873,3.4873,3.4873,0,3.4929,3.4933,3.4923,3.4923,3.4919,3.492,3.4919,3.4906,3.4905,3.4898,3.4902,3.49,3.4898,3.4898,3.4889,3.4886,3.4881,3.4894,3.488,3.4883,3.488,3.488,3.488,3.4896,3.4897,3.4897,3.4897,0,3.496,3.4955,3.4954,3.4951,3.495,3.4947,3.4943,3.4944,3.493,3.493,3.4929,3.4928,3.4925,3.4923,3.4919,3.4914,3.4903,3.4902,3.4904,3.4907,3.491,3.4908,3.4869,3.4901,3.49,3.49,3.49,3.49,3.4985,3.4988,3.4981,3.498,3.4976,3.4973,3.4974,3.4967,3.4966,3.4963,3.4955,3.4956,3.4949,3.4943,3.4939,3.4939,3.4932,3.4935,3.4936,3.4937,3.4938,3.4911,3.4938,3.4938,3.4938,3.4938,3.4938,0,3.5015,3.501,3.5009,3.5004,3.5004,3.4994,3.4989,3.4989,3.499,3.4985,3.4983,3.4982,3.4981,3.4972,3.4969,3.4971,3.4966,3.497,3.497,3.4969,3.4945,3.4943,3.4974,3.4974,3.4974,3.4974,3.4974,3.4974,3.503,3.5035,3.5029,3.5031,3.5026,3.5026,3.5024,3.5021,3.5017,3.5017,3.5015,3.5009,3.5003,3.4999,3.4998,3.4995,3.4994,3.5001,3.4996,3.4974,3.497,3.4967,3.4965,3.5001,3.5001,3.502,3.502,3.502]}]]